{"data":{"norad_id":63724,"intl_designator":"2025-088A","name":"KUIPER-00008","alt_names":[],"object_type":"PAYLOAD","status":"ACTIVE","operator":null,"country":"US","launch_date":"2025-04-28","launch_site_code":"AFETR","launch_vehicle":null,"mission":null,"orbit_class":"UNKNOWN","rcs_meters":null,"size_class":null,"mass_kg":null,"dimensions":null,"purposes":[],"wikipedia_slug":null,"has_3d_model":false,"image_url":null,"decayed_at":null,"tle_current":{"epoch":"2026-09-20T19:54:48.591648Z","epoch_age_seconds":176679,"freshness":"STALE","line1":"1 63724U 25088A   26263.82972907 -.00000244  00000+0 -30330-5 0  9993","line2":"2 63724  51.9016 305.1001 0000385  74.4283 285.6721 14.79926795 76946","mean_motion":14.79926795,"eccentricity":3.85e-5,"inclination_deg":51.9016,"raan_deg":305.1001,"arg_perigee_deg":74.4283,"mean_anomaly_deg":285.6721,"bstar":-3.033e-6,"rev_number":7694,"period_min":97.302110135792,"perigee_km":629.28542074048,"apogee_km":629.82501304118,"semimajor_km":7007.6922168908,"source":"CELESTRAK","updated_at":"2026-09-22T09:00:29.314764Z"}}}